DNKA

Details ICAO DNKA (KAD)
Name KADUNA
Region Nigeria
Timezone Africa/Lagos (UTC+1.0)
Plans Departing 22
Arriving 9
Stats Elevation 2,073 ft / 632 m (AMSL)
Location 10.695866° 7.320144°
Runways 1
Magnetic Variation 0.492° W
Sunrise 2018-05-25 05:08:53 UTC / 2018-05-25 06:08:53 Local
Sunset 2018-05-25 17:49:18 UTC / 2018-05-25 18:49:18 Local
Advertisement - Login to hide

Runways

ID Width Length Bearing (true) Bearing (mag) Surface Threshold Offset Overrun Length
05 197 ft / 60 m 9,860 ft / 3,005 m 49.54° 50.03° Asphalt 0 ft / 0 m 390 ft / 119 m
23 197 ft / 60 m 9,860 ft / 3,005 m 229.54° 230.03° Asphalt 0 ft / 0 m 390 ft / 119 m

Approach Navaids

Runway Type Ident Frequency Range Bearing (true) Bearing (mag) Slope Elevation
05 Localiser IKA 110.10 MHz 18 nm / 33 km 48.42° 48.91° - 2,073 ft / 632 m (AMSL)
05 Glidescope IKA 110.10 MHz 10 nm / 19 km 49.54° 50.04° 3.08° 2,067 ft / 630 m (AMSL)
05 DME IKA 110.10 MHz 18 nm / 33 km - - - 2,060 ft / 628 m (AMSL)

Map

Weather


0- 5 10 15 20 25 30 35+ Temperature / ° C

Clouds and Precipitation
Forecast for 2018-05-25 18:00 UTC. Updated 2 hours ago

Ground ~20,000 ft ~40,000 ft Winds

METAR

Not found

TAF

TAF DNKA 250950Z 2512/2618 25012KT 9999 BKN011 BECMG 2512/2514 BKN014 TEMPO 2516/2521 TS FEW021CB BECMG 2521/2523 17008KT FEW010

Frequencies

Approach 122.30 MHz APP
Approach 122.60 MHz APP
Warning: Do not use this data for real-world aviation or navigation. No guarantee of current accuracy is given.